カタログに戻る

USA 460

運用中軍事VLEO
NORAD 62359·PAYLOAD·🇺🇸 United States

打ち上げ Dec 17, 2024 から Vandenberg Space Force Base

Loading…

次のパス (今後24時間)

TLE

古いSource: Mike McCants

元期: Aug 20, 2026, 20:38 UTC

1 62359U 24243V   26232.85980635 0.00000000  00000-0  00000-0 0    02
2 62359  70.0216 134.6473 0004000  64.4936 295.5064 14.96713559    08

AllMySatでUSA 460をリアルタイム追跡

Download on the App Store